Location: Caltech
(34.1382°N, 118.1253°W)
Time: 04:57:46
(UTC-07:00)

Gbstr 26 Del rocket - Visible Passes

Search period start: 20 September 2014 00:00
Search period end: 30 September 2014 00:00
Orbit: 493 x 1279 km, 51.8° (Epoch: 18 September)

Date Brightness Start Highest point End Pass type
(mag) Time Alt. Az. Time Alt. Az. Time Alt. Az.
20 Sep 6.1 03:42:56 13° NNW 03:45:42 17° NNE 03:50:01 10° NE visible
20 Sep 5.5 05:28:25 10° NW 05:34:39 40° NE 05:41:52 10° E visible
21 Sep 6.1 03:40:54 14° NNW 03:43:41 18° NNE 03:48:19 10° ENE visible
21 Sep 5.2 05:26:00 10° NW 05:32:25 47° NE 05:39:53 10° ESE visible
22 Sep 6.0 03:38:58 16° N 03:41:37 20° NNE 03:46:38 10° ENE visible
22 Sep 4.9 05:23:35 10° NW 05:30:08 56° NE 05:37:48 10° ESE visible
23 Sep 5.9 03:37:09 19° N 03:39:31 23° NNE 03:44:56 10° ENE visible
23 Sep 4.6 05:21:12 10° NW 05:27:49 68° NE 05:35:37 10° SE visible
24 Sep 5.7 03:35:30 22° N 03:37:23 26° NNE 03:43:12 10° E visible
24 Sep 4.3 05:18:49 10° NW 05:25:28 82° NE 05:33:20 10° SE visible
25 Sep 5.5 03:34:01 28° NNE 03:35:12 30° NNE 03:41:24 10° E visible
25 Sep 4.2 05:16:46 12° NW 05:23:05 82° SW 05:30:56 10° SE visible
26 Sep 5.3 03:32:44 35° NNE 03:32:59 35° NNE 03:39:31 10° E visible
26 Sep 4.2 05:15:30 18° NW 05:20:42 66° SW 05:28:25 10° SSE visible
26 Sep 4.2 20:13:32 10° SSW 20:15:23 24° S 20:15:23 24° S visible
27 Sep 5.2 03:31:38 40° NE 03:31:38 40° NE 03:37:33 10° ESE visible
27 Sep 4.4 05:14:26 25° WNW 05:18:17 52° SW 05:25:46 10° SSE visible
27 Sep 2.9 20:10:53 10° SSW 20:14:16 49° SSE 20:14:16 49° SSE visible
28 Sep 5.3 03:30:44 37° E 03:30:44 37° E 03:35:30 10° ESE visible
28 Sep 4.6 05:13:32 32° W 05:15:52 41° SW 05:22:58 10° SSE visible
28 Sep 2.6 20:08:23 10° SW 20:12:07 76° SE 20:13:01 51° ENE visible
29 Sep 5.7 03:29:57 28° ESE 03:29:57 28° ESE 03:33:20 10° ESE visible
29 Sep 4.8 05:12:45 31° WSW 05:13:25 32° SW 05:20:00 10° S visible
29 Sep 2.8 20:06:01 10° SW 20:09:45 73° NW 20:11:34 31° NE visible
